This is the latest recevied weather packets stored in our database for station/object LX0APE-4. If no packets are shown the sender has not sent any weather packets the latest 10 day(s).
| Time | Temp. | Humidity | Pressure | Rain* | Wind** | Luminosity | Snow |
|---|---|---|---|---|---|---|---|
| 1777230438 | 17.78° C | 35% | 5018.4 hPa | 0 mm | - | - | - |
| 1777230433 | 17.78° C | 35% | 5018.4 hPa | 0 mm | - | - | - |
| 1777230133 | 18.33° C | 35% | 5018.4 hPa | 0 mm | - | - | - |
| 1777229833 | 18.33° C | 34% | 5018.4 hPa | 0 mm | - | - | - |
| 1777229533 | 18.33° C | 33% | 5018.4 hPa | 0 mm | - | - | - |
| 1777229233 | 18.89° C | 33% | 5018.3 hPa | 0 mm | - | - | - |
| 1777228933 | 18.89° C | 32% | 5018.3 hPa | 0 mm | - | - | - |
| 1777228638 | 19.44° C | 32% | 5018.3 hPa | 0 mm | - | - | - |
| 1777228633 | 19.44° C | 32% | 5018.3 hPa | 0 mm | - | - | - |
| 1777228333 | 19.44° C | 31% | 5018.3 hPa | 0 mm | - | - | - |
| 1777228033 | 20° C | 30% | 5018.2 hPa | 0 mm | - | - | - |
| 1777227733 | 20° C | 30% | 5018.1 hPa | 0 mm | - | - | - |
| 1777227446 | 20.56° C | 29% | 5018.2 hPa | 0 mm | - | - | - |
| 1777227133 | 20.56° C | 29% | 5018 hPa | 0 mm | - | - | - |
| 1777226833 | 20.56° C | 27% | 5018 hPa | 0 mm | - | - | - |
| 1777226533 | 21.11° C | 26% | 5018.1 hPa | 0 mm | - | - | - |
| 1777226233 | 21.11° C | 26% | 5018 hPa | 0 mm | - | - | - |
| 1777225934 | 21.67° C | 25% | 5018.3 hPa | 0 mm | - | - | - |
| 1777225633 | 22.22° C | 23% | 5018.3 hPa | 0 mm | - | - | - |
| 1777225333 | 23.33° C | 22% | 5018.2 hPa | 0 mm | - | - | - |
| 1777225033 | 24.44° C | 21% | 5018.1 hPa | 0 mm | - | - | - |
| 1777224733 | 25.56° C | 20% | 5018.2 hPa | 0 mm | - | - | - |
| 1777224433 | 25.56° C | 18% | 5018.1 hPa | 0 mm | - | - | - |
| 1777224133 | 25.56° C | 17% | 5018.2 hPa | 0 mm | - | - | - |
| 1777223833 | 27.22° C | 16% | 5018.2 hPa | 0 mm | - | - | - |
* Rain latest hour (hover to see other rain measurements)
** Current wind speed in m/s (hover to see current wind gust speed)